STARLINK-36773, 67801

Orbit data source: Space-Track

STARLINK-36773, 67801 is a payload satellite owned by SpaceX/Seattle (US) in SSO that was launched on Sun, 15 Feb 2026 UTC via an FALCON 9 launch vehicle from the Air Force Western Test Range (AFWTR). Payload-class satellites include a variety of spacecraft equipped with specific instruments for various scientific and technological missions. These include communications satellites like Starlink; space stations such as the ISS; scientific satellites like the Hubble; Earth observation satellites from companies like Planet Labs, Umbra, and HawkEye 360; GPS; miniature CubeSats for education and research; and military/defense satellites.

Loading next visibility...
Identifier
67801, 2026-032E
Orbit
SSO
Country
Flag of USUS
Related business
Manufacturer
SpaceX/Seattle
Mission
Operational Commercial Communications
Bus & Motor
STARLINK V2MO, Unknown motor
Mass
575 kg wet, ~530 kg dry
Launch date (UTC)
2026-02-15 (4 months ago)
Launch vehicle
FALCON 9
Launch site
Air Force Western Test Range (AFWTR)
Object type
Payload
Rocket body
Debris
Shape & HBR
Box + 2 Pan, 17.7 m
Radar Cross Section
36.964 m², Large (>1 m²)

Expand to show TLE details & history
Last TLE update: 10 hours ago

TLE from 10 hours ago
0 STARLINK-36773
1 67801U 26032E   26171.44359851  .00016814  00000-0  52166-3 0  9994
2 67801  97.2843 359.0933 0002329  89.2526 270.8984 15.33462463 20701
Epoch: 2026-06-20T10:38Z
TLE epoch observation values (Epoch: 2026-06-20T10:38:46.911Z)
Latitude
0.00003°
Longitude
-69.26031°
Altitude
468.579 km
Speed
7.632 km/s
True Right ascension
23h 56m 22s
True Declination
0° 00' 00"
Sunlit
Object was in daylight at epoch
Visualization orbit readout
Latitude
Unknown
Longitude
Unknown
Altitude
Unknown
Speed
Unknown
Apparent Right ascension
Unknown
Apparent Declination
Unknown
Sunlit
N/A
Visualization observer readout
Local Sidereal Time
07:15:19
Azimuth
Unknown
Elevation
Unknown
Doppler factor
Unknown
Orbital elements
Apogee altitude
464.027 km
Perigee altitude
460.841 km
Semi-major axis
6,840.571 km
Eccentricity
0.00023
Inclination
97.2843°
RAAN
359.0933°
Arg. of periapsis
89.2526°
True anomaly
270.87171°
Mean anomaly
270.8984°
Eccentric anomaly
270.88506°
Mean motion
3.83623 °/min
Orbital period
93.84 mins
BSTAR
0.00052166
Loading maneuver chart data...
Computing Atmospheric mass density...
Loading historical data...
Loading historical data...
Loading historical data...
Loading historical data...
Loading historical data...
Loading historical data...
Loading historical data...

Documentation

Showing up to 5 results
|